FENGYUN 1C DEB, 30633

Orbit data source: Space-Track

FENGYUN 1C DEB, 30633 is space debris in SSO originally from a launch on Mon, 10 May 1999 UTC launched from the Taiyaun Space Center, China (TSC). Fengyun 1C debris stems from the Chinese weather satellite Fengyun-1C, which was intentionally destroyed by a Chinese anti-satellite missile in 2007. This event dramatically increased the amount of space debris, with thousands of trackable fragments posing hazards to satellites and human spaceflight. The Fengyun 1C debris cloud has become a focal point in discussions about space sustainability and the need for international regulations to prevent the creation of new debris.

Loading next visibility...
Identifier
30633, 1999-025ANQ
Orbit
SSO
Country
Flag of CNCN / PRC
Related business
Manufacturer
Unknown
Mission
Spacecraft
Bus & Motor
Unknown
Mass
Unknown
Launch date (UTC)
1999-05-10 (27 years ago)
Launch vehicle
Unknown
Launch site
Taiyaun Space Center, China (TSC)
Object type
Payload
Rocket body
Debris
Shape & HBR
Unknown shape, 0.1 m
Radar Cross Section
Small (<0.1 m²)

Expand to show TLE details & history
Last TLE update: 16 hours ago

TLE from 16 hours ago
0 FENGYUN 1C DEB
1 30633U 99025ANQ 25352.17698593  .00000946  00000-0  57442-3 0  9999
2 30633  98.4201 216.7896 0130127 244.7065 242.9807 14.04401184959688
Epoch: 2025-12-18T04:14Z
TLE epoch observation values (Epoch: 2025-12-18T04:14:51.584Z)
Latitude
52.89977°
Longitude
-102.73427°
Altitude
931.063 km
Speed
7.369 km/s
True Right ascension
03h 12m 04s
True Declination
52° 44' 17"
Sunlit
Object was in full shadow at epoch
Visualization orbit readout
Latitude
Unknown
Longitude
Unknown
Altitude
Unknown
Speed
Unknown
Apparent Right ascension
Unknown
Apparent Declination
Unknown
Sunlit
N/A
Visualization observer readout
Local Sidereal Time
19:21:34
Azimuth
Unknown
Elevation
Unknown
Doppler factor
Unknown
Orbital elements
Apogee altitude
970.152 km
Perigee altitude
781.367 km
Semi-major axis
7,253.897 km
Eccentricity
0.01301
Inclination
98.4201°
RAAN
216.7896°
Arg. of periapsis
244.7065°
True anomaly
241.66217°
Mean anomaly
242.9807°
Eccentric anomaly
242.32045°
Mean motion
3.51306 °/min
Orbital period
102.47 mins
BSTAR
0.00057442
Loading maneuver chart data...
Computing Atmospheric mass density...

Documentation

Showing up to 5 results
|